Temp
12 12 12 13 14 15 15 15 15 15 15 15 15 15 15 15 15 15 14 14 13 13 13 13 13 13 13 12 12 12 12 12
11 11 12 13 13 14 15 15 15 15 15 15 15 15 15 15 14 14 14 14 13 13 13 13 12 12 12 12 12 12 11 11
11 12 12 13 14 14 14 15 14 14 14 15 15 15 14 14 14 13 13 13 12 12 12 12 12 12 12 11 11 11 11 11
13 12 12 13 14 14 14 15 14 14 14 14 14 13 13 13 13 12 12 12 12 12 12 11 11 11 11 11 10 10 10 10
13 12 12 13 14 14 14 14 13 13 13 13 13 13 13 12 12 12 12 12 12 12 11 11 11 11 11 10 10 10 10 9
12 12 13 14 14 14 14 14 13 12 13 13 13 12 13 12 12 12 12 12 12 12 11 11 11 11 11 11 10 10 9 9
13 13 13 13 14 13 13 13 13 13 13 12 12 12 12 12 12 12 12 12 11 11 11 11 11 11 10 10 10 9 9 9
12 13 13 13 13 13 13 13 13 13 12 12 12 12 12 12 12 12 12 12 11 11 11 11 11 10 10 9 9 9 8 7
13 13 13 13 13 13 13 13 12 12 12 12 12 13 13 12 12 12 12 11 11 11 11 10 10 10 9 8 8 7 7 7
13 13 13 13 13 13 13 12 12 12 12 12 13 13 12 12 12 11 11 11 11 11 11 10 9 8 8 8 7 6 6 6
13 13 13 13 13 13 13 13 12 13 13 13 13 12 12 11 11 10 11 11 11 10 10 9 8 7 6 6 6 5 5 5
14 13 13 13 13 13 13 13 13 13 12 12 12 11 12 12 11 11 11 11 10 9 8 8 7 7 6 6 5 4 4 4
15 15 14 14 13 13 13 13 13 12 12 12 12 12 12 11 11 11 10 9 8 8 8 7 7 6 5 4 4 4 4 4
15 15 15 14 14 13 14 13 13 12 12 11 11 11 11 11 11 10 10 10 9 8 7 7 5 4 3 3 3 3 3 3
15 15 15 15 14 13 13 13 12 11 11 10 11 10 10 10 10 10 9 8 8 6 5 4 3 3 3 3 2 2 2 1
15 15 13 13 13 12 13 12 11 11 11 10 10 9 10 10 10 9 8 7 6 6 5 4 3 3 2 2 2 1 1 1
16 13 12 12 12 12 12 12 12 11 10 10 9 9 9 9 9 8 6 6 6 5 5 4 3 2 2 2 1 1 1 0
14 13 12 11 12 12 12 12 11 10 10 9 9 9 8 7 6 6 6 5 5 5 4 2 2 1 1 1 0 0 -0 -1
14 14 13 12 11 11 11 11 11 10 10 9 8 8 7 7 6 5 5 4 4 3 2 2 1 1 0 -0 -1 -1 -1 -2
12 13 13 12 12 11 11 11 10 10 9 8 8 7 6 5 5 4 4 3 3 2 2 1 0 0 -0 -1 -1 -1 -1 -1
Height
1532 1537 1542 1547 1551 1556 1559 1560 1561 1564 1565 1567 1568 1569 1570 1573 1574 1576 1577 1580 1580 1579 1581 1581 1580 1580 1580 1579 1578 1578 1577 1576
1529 1537 1543 1551 1555 1558 1560 1561 1563 1566 1566 1568 1570 1571 1572 1573 1575 1578 1579 1579 1581 1580 1580 1580 1582 1579 1580 1580 1577 1578 1576 1576
1543 1549 1548 1554 1556 1557 1559 1561 1563 1567 1570 1570 1570 1571 1573 1576 1577 1579 1580 1580 1580 1581 1580 1580 1580 1579 1579 1578 1577 1577 1575 1574
1545 1545 1549 1554 1556 1557 1559 1562 1565 1568 1570 1571 1573 1574 1575 1576 1577 1577 1580 1580 1580 1580 1580 1580 1580 1578 1577 1576 1575 1575 1574 1573
1547 1548 1550 1554 1556 1557 1560 1563 1566 1569 1570 1571 1572 1572 1575 1577 1577 1576 1578 1580 1580 1579 1578 1579 1579 1577 1576 1575 1575 1574 1573 1572
1545 1548 1550 1553 1555 1558 1561 1564 1566 1568 1569 1570 1570 1573 1575 1576 1576 1576 1578 1578 1578 1579 1578 1578 1578 1577 1574 1575 1575 1573 1571 1570
1547 1548 1551 1553 1555 1559 1562 1564 1565 1567 1569 1570 1572 1574 1574 1575 1576 1577 1577 1577 1577 1578 1578 1576 1576 1574 1574 1574 1572 1571 1569 1567
1548 1549 1553 1554 1557 1560 1561 1563 1565 1568 1569 1571 1573 1574 1572 1575 1575 1575 1575 1576 1575 1575 1574 1573 1572 1572 1571 1571 1570 1568 1567 1566
1549 1551 1553 1556 1559 1560 1561 1562 1566 1568 1569 1571 1572 1572 1571 1574 1573 1573 1574 1572 1573 1573 1571 1570 1570 1568 1568 1568 1566 1565 1565 1563
1548 1551 1553 1556 1558 1559 1562 1564 1564 1566 1568 1569 1569 1569 1570 1569 1571 1572 1569 1571 1570 1569 1569 1566 1566 1565 1566 1565 1563 1563 1562 1560
1546 1549 1551 1554 1557 1559 1561 1562 1563 1565 1564 1564 1564 1565 1565 1567 1569 1568 1567 1568 1569 1567 1565 1564 1565 1564 1562 1561 1560 1559 1558 1557
1544 1546 1549 1553 1556 1557 1559 1560 1560 1561 1562 1563 1563 1563 1564 1564 1565 1567 1567 1567 1566 1564 1564 1564 1563 1560 1559 1557 1557 1557 1555 1554
1540 1542 1546 1547 1550 1553 1556 1558 1559 1561 1561 1560 1560 1561 1562 1563 1565 1565 1564 1564 1563 1563 1561 1560 1559 1556 1555 1554 1553 1552 1552 1551
1538 1540 1542 1544 1547 1550 1554 1556 1558 1558 1557 1558 1560 1561 1561 1562 1563 1563 1562 1562 1561 1559 1558 1556 1556 1554 1553 1551 1550 1549 1547 1547
1536 1539 1541 1543 1547 1549 1552 1554 1554 1555 1555 1557 1559 1560 1560 1561 1562 1560 1560 1558 1556 1555 1554 1552 1551 1551 1550 1551 1548 1544 1543 1542
1535 1536 1539 1542 1544 1546 1547 1547 1548 1551 1553 1556 1557 1556 1558 1558 1557 1556 1555 1554 1552 1551 1550 1549 1548 1548 1547 1546 1545 1543 1540 1536
1528 1533 1537 1540 1538 1541 1544 1545 1547 1550 1551 1553 1553 1555 1555 1555 1554 1553 1553 1551 1549 1548 1547 1545 1544 1545 1543 1542 1542 1540 1538 1535
1525 1530 1533 1536 1537 1539 1541 1542 1544 1546 1548 1549 1552 1553 1554 1554 1553 1552 1551 1548 1546 1544 1542 1541 1540 1541 1539 1537 1535 1534 1532 1530
1523 1525 1529 1533 1535 1537 1538 1541 1543 1545 1547 1550 1551 1550 1550 1549 1550 1549 1547 1544 1542 1542 1540 1537 1536 1536 1535 1533 1531 1529 1527 1526
1519 1522 1525 1530 1533 1535 1537 1539 1542 1545 1546 1548 1547 1547 1548 1548 1548 1547 1544 1541 1539 1538 1536 1533 1532 1532 1531 1530 1528 1527 1525 1522
Wind_Speed
29 28 26 21 16 14 15 16 18 19 18 19 22 22 21 19 17 16 15 13 13 13 11 10 10 12 14 10 10 13 11 13
30 29 29 29 17 15 15 16 17 18 19 20 20 19 18 16 14 12 11 11 10 10 7 7 7 9 13 10 11 10 14 12
23 35 23 19 18 16 16 17 19 19 19 19 19 18 15 13 12 11 9 8 9 8 5 3 3 6 13 13 12 14 17 13
16 30 23 20 18 18 17 18 20 20 19 18 17 16 15 13 14 12 8 7 6 4 4 1 3 5 8 10 13 13 13 11
30 24 22 20 18 18 19 21 22 20 16 14 14 13 13 11 11 9 7 5 6 3 4 3 2 4 8 9 9 11 12 12
27 23 21 19 19 20 21 23 22 20 19 15 12 10 11 9 10 8 6 3 3 6 5 5 7 10 12 14 11 14 15 16
26 24 23 23 23 21 21 23 22 18 15 13 12 13 9 9 10 8 5 5 6 7 9 10 14 13 13 9 10 14 17 19
28 25 25 25 24 22 22 21 19 15 15 14 13 11 11 11 11 10 12 11 9 11 12 13 13 14 14 15 18 17 17 15
26 27 28 25 23 21 17 15 18 16 14 13 13 12 11 12 12 11 9 8 9 9 11 12 14 16 17 20 17 14 13 17
28 29 26 23 22 21 21 21 17 15 13 10 10 13 15 13 14 10 5 7 10 13 15 17 19 19 21 19 16 15 15 17
34 30 27 26 27 25 24 21 16 11 8 8 11 16 15 11 9 7 7 10 14 15 17 19 20 22 20 20 18 10 8 9
35 32 30 30 28 27 27 22 14 9 8 8 11 12 10 9 7 7 10 13 14 16 18 20 22 22 21 20 14 11 15 14
34 31 33 30 29 30 29 23 13 15 13 12 11 11 9 8 9 11 13 14 17 20 21 20 20 21 19 19 20 8 10 10
31 31 30 28 26 27 27 23 17 14 12 12 12 11 10 11 11 12 14 18 20 19 19 20 20 19 17 18 5 18 4 9
27 25 23 27 26 28 30 22 18 19 17 15 14 14 15 13 11 13 19 19 18 19 21 20 18 18 19 15 9 6 19 11
28 26 27 29 27 34 36 29 26 23 20 19 19 18 14 11 13 18 20 17 18 19 21 20 19 17 17 19 18 19 20 14
24 27 26 26 26 35 33 29 25 23 25 24 22 18 15 13 17 20 17 18 18 18 17 17 16 16 18 18 19 21 24 22
28 17 22 26 29 32 31 30 29 31 29 25 20 16 14 16 17 17 18 17 17 17 16 14 13 15 17 20 21 22 17 18
23 19 26 29 29 28 30 31 34 35 30 24 19 19 18 18 17 14 14 15 15 15 15 15 16 19 21 17 18 17 19 21
25 23 26 25 26 28 29 31 30 27 24 22 20 17 13 10 11 15 15 15 16 16 15 15 17 18 21 20 18 20 23 25
Wind_Direction
149 144 129 121 122 138 145 142 141 143 138 137 137 130 127 124 118 114 108 95 83 74 75 69 68 53 36 37 36 26 27 9
106 119 127 139 150 146 143 143 143 144 142 141 136 135 128 126 120 109 96 87 78 74 74 57 45 30 16 14 9 2 358 351
110 119 150 155 154 148 147 145 148 144 143 144 141 136 127 125 112 95 97 103 96 85 84 56 27 341 343 353 353 347 351 347
187 157 160 164 160 152 150 153 152 149 149 146 134 126 120 112 122 119 123 116 131 128 133 117 314 354 348 348 344 348 342 328
168 166 162 165 163 154 156 156 150 148 149 139 143 145 139 135 140 149 147 156 163 186 161 232 273 317 320 333 334 329 326 327
161 159 168 169 167 162 156 158 156 156 159 154 156 161 164 178 181 163 164 187 233 226 229 250 284 303 314 314 312 313 314 317
159 157 169 165 161 160 161 164 169 172 168 172 178 186 183 187 188 194 229 283 241 247 260 282 286 290 300 294 301 308 306 304
164 162 162 159 165 170 172 172 175 179 182 187 193 192 188 211 225 245 272 284 270 266 278 286 299 302 300 299 307 308 306 299
172 174 170 176 178 176 178 183 186 186 191 198 207 209 226 231 235 266 256 255 272 283 296 301 300 304 304 307 312 307 291 289
177 179 180 187 182 183 190 197 192 194 189 222 250 243 238 239 249 248 246 272 289 297 301 305 308 306 303 311 314 308 300 304
184 185 188 188 187 195 201 206 199 217 252 266 245 224 221 212 203 221 265 287 293 301 309 311 307 307 312 315 322 305 289 289
192 193 197 195 198 203 203 204 222 258 249 215 195 183 186 200 221 252 280 293 302 310 304 300 303 307 311 311 314 298 284 287
194 195 197 196 198 201 204 210 234 243 232 201 196 195 205 220 245 271 286 305 307 301 302 305 307 310 313 310 314 272 269 258
197 198 200 202 206 208 211 217 251 239 225 208 207 209 223 241 257 284 306 302 296 296 300 305 310 312 308 314 300 293 257 230
206 207 209 210 212 214 210 226 228 209 210 221 227 229 229 237 276 302 300 295 297 306 308 308 308 304 299 300 304 276 301 309
215 217 208 208 211 211 213 225 207 210 217 220 222 230 243 265 283 293 296 296 295 296 296 296 298 303 301 302 298 293 299 301
219 210 212 217 208 204 212 213 212 213 216 221 225 233 243 265 294 284 283 287 291 292 292 291 294 301 301 297 299 298 294 290
212 198 213 205 200 201 207 214 217 216 214 219 224 239 245 257 269 277 282 289 298 303 303 307 311 300 295 298 296 295 289 279
207 217 199 199 213 220 219 222 223 217 220 221 225 229 242 263 268 282 294 305 313 314 305 303 303 303 307 301 298 296 289 285
196 199 203 211 211 209 210 216 217 217 213 214 224 238 253 277 296 304 310 315 320 316 308 301 297 301 302 303 301 302 295 290